Lid_Strength_Index
1 0 -1 -1 -1 -1 -1 -1 -1 -1 -1 -1 -1 -2 -2 -2 -2 -2 -2 -2 -2 -2 -2 -2 -2 -2 -2 -2 -2 -2 -2 -2 -2 -2 -2 -2 -2 -2 -2 -2 -2 -1 -2
0 -0 -1 -1 -1 -1 -1 -1 -1 -1 -1 -1 -1 -1 -1 -1 -1 -1 -2 -2 -2 -2 -2 -2 -2 -2 -2 -2 -2 -2 -2 -2 -2 -2 -2 -2 -2 -2 -2 -2 -2 -1 -2
0 -0 -1 -1 -1 -1 -1 -1 -1 -1 -1 -1 -1 -1 -1 -1 -1 -2 -2 -2 -1 -2 -2 -2 -1 -1 -1 -2 -2 -2 -2 -1 -1 -1 -1 2 1 -1 -1 -1 -2 -2 -2
-0 -0 -0 -1 -1 -1 -1 -1 -1 -1 -1 -1 -1 -1 -1 -1 -1 -2 -1 -1 -1 -2 -2 -1 -1 -1 -1 -2 -2 -2 -2 -1 -1 -1 1 2 1 -1 -1 -2 -1 -2 -2
0 -0 -0 -1 -1 -1 -1 -1 -1 -1 -1 -1 -1 -1 -1 -1 -1 -1 -1 -1 -1 -1 -1 -1 -1 -1 -1 -1 -2 -2 -2 -2 -1 2 3 2 1 -1 -1 -1 -1 -1 -1
0 -0 -0 -1 -1 -1 -1 -1 -1 -1 -1 -1 -1 -1 -1 -1 -1 -1 -1 -1 -1 -1 -1 -1 -1 -1 -1 -1 -1 -1 -2 -1 0 3 3 2 1 -1 -1 -1 -1 -1 -1
0 0 -0 -1 -1 -1 -1 -1 -1 -1 -1 -1 -1 -1 -1 -1 -1 -1 -1 -1 -1 -1 -1 -1 -1 -1 -1 -1 -1 -1 -1 -1 2 3 3 3 2 -2 -1 -1 -1 -1 -1
0 0 -0 1 -0 -1 -1 -1 -1 -1 -1 -1 -1 -1 -1 -1 -1 -1 -1 -1 -1 -1 -1 -1 -1 -1 -1 -1 -1 -1 -2 -2 1 3 3 3 1 -2 -2 -1 -1 -1 -1
1 0 0 0 1 1 -0 -0 -1 -1 -2 -2 -2 -1 -2 -2 -2 -2 -2 -2 -1 -1 -1 -1 -1 -1 -1 -1 -1 -2 -2 -1 2 3 2 3 0 -2 -2 -2 -2 -1 -1
1 1 1 1 0 0 0 1 0 -1 -1 -1 -1 -1 -0 -1 -1 -1 -0 -1 -1 -2 -2 -2 -2 -1 -1 -2 -2 -1 -1 -1 2 3 3 3 0 -1 -2 -2 -2 -2 -2
2 1 1 1 1 1 0 1 1 1 -0 -0 -0 0 1 1 1 1 1 -1 -2 -2 -2 -2 -2 -2 -1 -1 -1 -1 -1 1 2 2 2 1 -1 -2 -2 -2 -2 -2 -2
3 2 2 2 1 1 -0 0 1 1 1 1 1 1 1 1 1 1 1 1 -1 -1 -2 -2 -2 -1 0 1 1 0 1 2 2 2 2 -0 -1 -2 -2 -2 -2 -2 -2
4 3 2 2 2 1 1 1 1 1 1 1 0 1 1 1 2 2 3 2 2 2 2 1 1 1 1 1 1 2 2 2 2 2 1 0 -1 -2 -2 -2 -2 -2 -2
4 3 2 2 2 2 1 1 2 1 1 1 1 0 1 1 1 1 2 1 1 1 1 1 2 2 2 2 2 2 2 2 2 2 2 2 0 -1 -2 -2 -2 -2 -2
6 4 3 3 2 2 2 2 2 2 2 1 1 1 1 1 -0 -0 1 1 1 1 1 1 1 1 1 1 2 2 1 1 1 1 1 2 1 -1 -2 -2 -2 -2 -2
5 6 4 3 4 2 2 2 2 2 2 2 2 2 1 0 -0 -0 -0 1 1 1 1 1 1 1 1 1 2 2 1 1 1 1 1 1 1 -1 -2 -2 -2 -2 -2
6 5 4 3 3 4 3 2 3 2 2 2 2 1 1 0 0 -0 -0 0 0 0 1 1 1 2 2 2 2 2 1 1 2 1 1 1 0 0 -0 -1 -2 -2 -2
6 6 5 5 5 5 5 4 7 5 3 3 2 1 0 0 0 -0 0 0 -0 0 0 1 1 1 2 2 2 1 1 2 1 0 0 0 1 1 0 -1 -1 -1 -2
8 7 7 7 7 6 5 3 4 2 2 1 2 3 4 3 2 1 1 1 1 0 1 1 1 1 1 1 1 1 1 0 0 0 1 1 1 1 1 0 0 -0 -1
9 9 8 8 8 7 5 3 2 2 3 5 5 6 6 6 4 4 4 3 2 1 2 2 2 1 1 1 1 1 1 1 2 2 2 1 1 2 2 2 1 2 2
10 10 10 9 10 9 7 4 2 3 5 7 8 9 9 9 7 5 6 5 3 4 5 5 4 2 1 2 2 3 4 3 3 2 2 2 4 3 3 3 3 5 6
12 11 11 11 11 10 9 6 3 5 8 8 9 11 10 10 9 8 7 7 7 5 6 6 5 5 3 3 3 4 6 5 4 4 3 5 6 5 5 6 7 8 8
13 13 12 12 12 12 10 5 5 6 7 8 10 11 11 10 10 9 9 8 8 8 8 8 8 7 7 6 6 5 7 8 6 5 5 7 7 7 6 7 8 8 9
14 13 13 13 13 12 11 8 6 7 10 11 12 12 12 12 11 11 11 11 11 10 10 9 9 9 8 8 8 7 5 5 6 8 6 7 8 7 8 8 9 10 10
14 14 14 14 14 13 13 11 10 11 11 11 13 14 14 13 13 13 12 12 12 11 11 11 11 11 11 11 10 10 9 8 7 7 9 9 10 8 8 9 10 11 11
14 14 14 14 15 14 14 14 13 12 13 14 15 15 15 15 14 14 13 13 12 12 12 12 12 12 12 11 11 11 11 12 12 12 12 11 11 10 8 9 10 11 11